COSMOS 1275 DEB, 13799

Orbit data source: Space-Track

COSMOS 1275 DEB, 13799 is space debris in LEO originally from a launch on Thu, 04 Jun 1981 UTC launched from the Plesetsk Missile And Space Complex (PKMTR). Debris objects in space refer to the collection of defunct objects orbiting the Earth. Examples of debris include non-operational satellites, rocket bodies, and fragments generated from explosions, collisions, or faulty payload assembly.

Loading next visibility...
Identifier
13799, 1981-053GT
Orbit
LEO
Country
Flag of CISCIS
Related business
Manufacturer
Unknown
Mission
Spacecraft
Bus & Motor
Unknown
Mass
Unknown
Launch date (UTC)
1981-06-04 (45 years ago)
Launch vehicle
Unknown
Launch site
Plesetsk Missile And Space Complex (PKMTR)
Object type
Payload
Rocket body
Debris
Shape & HBR
Unknown shape, 0.1 m
Radar Cross Section
Small (<0.1 m²)

Expand to show TLE details & history
Last TLE update: 17 hours ago

TLE from 17 hours ago
0 COSMOS 1275 DEB
1 13799U 81053GT  26104.29645419  .00000772  00000-0  71266-3 0  9990
2 13799  83.1352  37.4403 0088373 307.3834 207.5517 13.79654534175198
Epoch: 2026-04-14T07:06Z
TLE epoch observation values (Epoch: 2026-04-14T07:06:53.642Z)
Latitude
25.36167°
Longitude
-95.01251°
Altitude
1,025.857 km
Speed
7.312 km/s
True Right ascension
14h 16m 44s
True Declination
25° 14' 01"
Sunlit
Object was in full shadow at epoch
Visualization orbit readout
Latitude
Unknown
Longitude
Unknown
Altitude
Unknown
Speed
Unknown
Apparent Right ascension
Unknown
Apparent Declination
Unknown
Sunlit
N/A
Visualization observer readout
Local Sidereal Time
06:21:01
Azimuth
Unknown
Elevation
Unknown
Doppler factor
Unknown
Orbital elements
Apogee altitude
1,027.116 km
Perigee altitude
897.378 km
Semi-major axis
7,340.384 km
Eccentricity
0.00884
Inclination
83.1352°
RAAN
37.4403°
Arg. of periapsis
307.3834°
True anomaly
207.08784°
Mean anomaly
207.5517°
Eccentric anomaly
207.31932°
Mean motion
3.45116 °/min
Orbital period
104.31 mins
BSTAR
0.00071266
Loading maneuver chart data...
Computing Atmospheric mass density...

Documentation

Showing up to 5 results
|